Location: Newark
(17.9939°S, 31.0481°E)
Time: 02:12:46
(UTC+00:00)

Courier 1B - Pass Details

Date: 14 November 2019
Orbit: 963 x 1209 km, 28.3° (Epoch: 07 December)

Event Time Altitude Azimuth Distance (km) Brightness Sun altitude
Rises 16:32:14 0° 287° (WNW) 3,958 11.6 -6.1°
Reaches altitude 10° 16:34:58 10° 284° (WNW) 3,033 11.0 -6.7°
Maximum altitude 16:42:31 71° 201° (SSW) 1,248 8.2 -8.4°
Drops below altitude 10° 16:50:24 10° 117° (ESE) 3,151 9.8 -10.1°
Sets 16:53:19 0° 114° (ESE) 4,120 10.4 -10.7°
